Williamtown, Australia

5:16 AM AEDT on October 22, 2017 (GMT +1100)
Williamtown Military

Weather History for YWLM - February, 2013

Change the Weather History Date:

Monday, February 4, 2013

  Actual Average Record
Temperature  
Mean Temperature 68 °F -  
Max Temperature 77 °F - - ()
Min Temperature 60 °F - - ()
Cooling Degree Days 4    
Growing Degree Days 18 (Base 50)    
Moisture  
Dew Point 61 °F    
Average Humidity 80    
Maximum Humidity 94    
Minimum Humidity 48    
Precipitation  
Precipitation 0.47 in - - ()
Sea Level Pressure  
Sea Level Pressure 30.13 in    
Wind  
Wind Speed 9 mph ()    
Max Wind Speed 22 mph    
Max Gust Speed -    
Visibility 6.5 miles    
Events Rain    
T = Trace of Precipitation, MM = Missing Value Source: Averaged Metar Reports

Daily Weather History Graph

Daily Weather History Graph

Search for Another Location

Airport or City:

Trip Planner

Search our weather history database for the weather conditions in past years. The results will help you decide how hot, cold, wet, or windy it might be!

Date:

Astronomy

Feb. 04, 2013 Rise Set
Actual Time 6:19 AM AEDT 7:53 PM AEDT
Civil Twilight 5:52 AM AEDT 8:20 PM AEDT
Nautical Twilight 5:20 AM AEDT 8:51 PM AEDT
Astronomical Twilight 4:47 AM AEDT 9:25 PM AEDT
Moon 12:00 AM AEDT (2/4) 2:04 PM AEDT (2/4)
Length of Visible Light 14h 27m
Length of Day
13h 34m
Last Quarter, 45% of the Moon is Illuminated
Feb 4
Last Quarter
Feb 10
New
Feb 18
First Quarter
Feb 26
Full
Mar 5
Last Quarter

Hourly Weather History & Observations

Time (AEDT) Temp. Dew Point Humidity Pressure Visibility Wind Dir Wind Speed Gust Speed Precip Events Conditions
12:00 AM 68.0 °F 62.6 °F 83% 30.04 in 6.2 mi SSW 8.1 mph - N/A Rain Rain Showers
12:30 AM 66.2 °F 62.6 °F 88% 30.04 in 6.2 mi WSW 5.8 mph - N/A   Overcast
1:00 AM 66.2 °F 62.6 °F 88% 30.04 in 6.2 mi West 5.8 mph - N/A   Overcast
1:30 AM 64.4 °F 62.6 °F 94% 30.04 in 6.2 mi WSW 8.1 mph - N/A   Mostly Cloudy
2:00 AM 65 °F 62 °F 88% 30.05 in - West 6.9 mph - -  
2:00 AM 64.4 °F 62.6 °F 94% 30.04 in 6.2 mi West 6.9 mph - N/A Rain Light Rain Showers
2:30 AM 64.4 °F 62.6 °F 94% 30.04 in 6.2 mi WSW 9.2 mph - N/A Rain Light Rain Showers
3:00 AM 64 °F 62 °F 91% 30.04 in - West 8.1 mph - -   Overcast
3:00 AM 64.4 °F 62.6 °F 94% 30.04 in 6.2 mi West 8.1 mph - N/A   Overcast
3:30 AM 64.4 °F 62.6 °F 94% 30.04 in 6.2 mi WSW 8.1 mph - N/A Rain Light Rain Showers
4:00 AM 64.4 °F 62.6 °F 94% 30.04 in 6.2 mi WSW 8.1 mph - N/A   Overcast
4:30 AM 62.6 °F 60.8 °F 94% 30.04 in 6.2 mi West 9.2 mph - N/A   Scattered Clouds
5:00 AM 63 °F 62 °F 93% 30.06 in - West 8.1 mph - -  
5:00 AM 62.6 °F 60.8 °F 94% 30.04 in 6.2 mi West 8.1 mph - N/A Rain Light Rain Showers
5:30 AM 62.6 °F 60.8 °F 94% 30.06 in 6.2 mi West 6.9 mph - N/A   Scattered Clouds
6:00 AM 62 °F 60 °F 92% 30.08 in 16 mi West 6.9 mph - -   Partly Cloudy
6:00 AM 62.6 °F 60.8 °F 94% 30.06 in - West 6.9 mph - N/A   Clear
6:30 AM 62.6 °F 60.8 °F 94% 30.06 in - West 8.1 mph - N/A   Clear
7:00 AM 62.6 °F 60.8 °F 94% 30.09 in - West 8.1 mph - N/A   Clear
7:30 AM 64.4 °F 60.8 °F 88% 30.09 in - West 9.2 mph - N/A   Clear
8:00 AM 65 °F 62 °F 85% 30.13 in - West 8.1 mph - -  
8:00 AM 64.4 °F 60.8 °F 88% 30.12 in 6.2 mi West 8.1 mph - N/A   Mostly Cloudy
8:30 AM 68.0 °F 62.6 °F 83% 30.12 in 6.2 mi WSW 6.9 mph - N/A   Mostly Cloudy
9:00 AM 68 °F 62 °F 77% 30.15 in 12 mi West 8.1 mph - -   Mostly Cloudy
9:00 AM 68.0 °F 62.6 °F 83% 30.12 in 6.2 mi West 8.1 mph - N/A   Mostly Cloudy
9:30 AM 66.2 °F 62.6 °F 88% 30.15 in 3.7 mi South 5.8 mph - N/A Rain Light Rain Showers
9:36 AM 66.2 °F 62.6 °F 88% 30.15 in 3.7 mi SSE 5.8 mph - N/A Rain Rain Showers
9:47 AM 66.2 °F 62.6 °F 88% 30.15 in 3.1 mi SE 10.4 mph - N/A Rain Rain Showers
10:00 AM 66.2 °F 60.8 °F 83% 30.15 in 3.1 mi ESE 13.8 mph - N/A Rain Rain Showers
10:11 AM 64.4 °F 62.6 °F 94% 30.15 in 3.7 mi SSW 5.8 mph - N/A Rain Light Rain Showers
10:30 AM 66.2 °F 62.6 °F 88% 30.15 in 5.0 mi South 5.8 mph - N/A Rain Light Rain Showers
11:00 AM 70 °F 64 °F 75% 30.18 in - SSW 16.1 mph - -  
11:00 AM 69.8 °F 64.4 °F 83% 30.15 in 6.2 mi SSW 16.1 mph - N/A   Scattered Clouds
11:30 AM 68.0 °F 64.4 °F 88% 30.18 in 3.7 mi SSW 12.7 mph - N/A Rain Rain Showers
11:42 AM 69.8 °F 64.4 °F 83% 30.18 in 5.0 mi SSE 10.4 mph - N/A   Mostly Cloudy
12:00 PM 70 °F 65 °F 79% 30.18 in 9 mi SSW 11.5 mph - - Rain Light Rain Showers
12:00 PM 69.8 °F 64.4 °F 83% 30.15 in 6.2 mi SSW 11.5 mph - N/A   Mostly Cloudy
12:30 PM 71.6 °F 62.6 °F 73% 30.15 in 6.2 mi South 16.1 mph - N/A   Mostly Cloudy
1:00 PM 75.2 °F 60.8 °F 61% 30.15 in 6.2 mi South 19.6 mph - N/A   Partly Cloudy
1:30 PM 75.2 °F 59.0 °F 57% 30.15 in 6.2 mi South 17.3 mph - N/A   Scattered Clouds
2:00 PM 76 °F 60 °F 48% 30.17 in - South 19.6 mph - -  
2:00 PM 77.0 °F 60.8 °F 57% 30.15 in 6.2 mi South 19.6 mph - N/A   Partly Cloudy
2:30 PM 75.2 °F 62.6 °F 65% 30.15 in 6.2 mi South 21.9 mph - N/A   Partly Cloudy
3:00 PM 75 °F 61 °F 52% 30.17 in 19 mi South 20.7 mph - -   Partly Cloudy
3:00 PM 75.2 °F 60.8 °F 61% 30.15 in 6.2 mi South 20.7 mph - N/A   Scattered Clouds
3:30 PM 73.4 °F 55.4 °F 53% 30.15 in 6.2 mi South 18.4 mph - N/A   Scattered Clouds
4:00 PM 75.2 °F 59.0 °F 57% 30.15 in 6.2 mi South 15.0 mph - N/A   Scattered Clouds
4:30 PM 73.4 °F 62.6 °F 69% 30.15 in 6.2 mi SSE 19.6 mph - N/A   Scattered Clouds
5:00 PM 72 °F 58 °F 51% 30.17 in - South 18.4 mph - -  
5:00 PM 71.6 °F 57.2 °F 60% 30.15 in 6.2 mi South 18.4 mph - N/A   Mostly Cloudy
5:30 PM 71.6 °F 57.2 °F 60% 30.15 in 6.2 mi South 18.4 mph - N/A   Mostly Cloudy
6:00 PM 72 °F 56 °F 48% 30.18 in - South 17.3 mph - -   Overcast
6:00 PM 71.6 °F 57.2 °F 60% 30.15 in 6.2 mi South 17.3 mph - N/A   Mostly Cloudy
6:30 PM 71.6 °F 59.0 °F 64% 30.18 in 6.2 mi South 10.4 mph - N/A   Mostly Cloudy
7:00 PM 71.6 °F 60.8 °F 69% 30.18 in 6.2 mi SSE 6.9 mph - N/A   Mostly Cloudy
7:30 PM 69.8 °F 60.8 °F 73% 30.18 in 6.2 mi South 9.2 mph - N/A   Scattered Clouds
8:00 PM 67 °F 61 °F 76% 30.20 in - South 8.1 mph - -  
8:00 PM 68.0 °F 60.8 °F 78% 30.18 in 6.2 mi South 8.1 mph - N/A   Partly Cloudy
10:00 PM 62.6 °F 60.8 °F 94% 30.21 in 6.2 mi NNW 3.5 mph - N/A   Unknown
10:30 PM 60.8 °F 59.0 °F 94% 30.21 in 6.2 mi WNW 3.5 mph - N/A   Scattered Clouds
11:00 PM 62 °F 61 °F 94% 30.22 in - NW 4.6 mph - -  
11:00 PM 62.6 °F 60.8 °F 94% 30.21 in 6.2 mi NW 4.6 mph - N/A   Mostly Cloudy
11:30 PM 62.6 °F 60.8 °F 94% 30.21 in 6.2 mi WNW 5.8 mph - N/A   Unknown